Regional Weather Roundup
Issued by NWS

Home | Current Version | Previous Version | Text Only | Print | Product List | Glossary On
Versions: 1 2 3 4 5 6 7 8 9 10 11 12 13 14 15 16 17 18 19 20 21 22 23 24 25 26 27 28 29 30 31 32 33 34 35 36 37 38 39 40 41 42 43 44 45 46 47 48 49 50
000
ASUS45 KPSR 222010
RWRAZ

ARIZONA HOURLY REGIONAL WEATHER ROUNDUP
NATIONAL WEATHER SERVICE PHOENIX AZ
100 PM MST TUE AUG 22 2017

NOTE: FAIR INDICATES FEW OR NO CLOUDS BELOW 12,000 FEET WITH NO
SIGNIFICANT WEATHER AND/OR OBSTRUCTIONS TO VISIBILITY.

AZZ001>003-036-222100-
NORTHWEST ARIZONA

CITY           SKY/WX    TMP DP  RH WIND       PRES   REMARKS
BULLHEAD CITY  SUNNY    104  46  14 VRB3      29.91F HX 100
KINGMAN        MOSUNNY   94  47  20 VRB5      30.14F
$$

AZZ004>008-015-016-018-222100-
NORTH CENTRAL ARIZONA

CITY           SKY/WX    TMP DP  RH WIND       PRES   REMARKS
GRAND CANYON   MOSUNNY   77  43  29 CALM      30.37F
WILLIAMS       MOSUNNY   75  41  29 VRB5G12   30.38F
PRESCOTT       MOSUNNY   86  46  24 S8        30.25F
FLAGSTAFF      MOSUNNY   76  41  28 SW8G18    30.41S
PAYSON           N/A     88  43  20 W9        30.26F
PAGE           PTSUNNY   86  49  27 W8        30.20F
$$

AZZ009>014-017-222100-
NORTHEAST ARIZONA

CITY           SKY/WX    TMP DP  RH WIND       PRES   REMARKS
WINSLOW        MOSUNNY   89  44  20 VRB3      30.23F
SAINT JOHNS    PTSUNNY   87  45  23 N7        30.27F
WINDOW ROCK    MOSUNNY   80  50  34 VRB3      30.37F
SHOW LOW       PTSUNNY   79  45  29 NW6       30.35F
$$

AZZ540-542>544-546-548-222100-
GREATER PHOENIX AREA

CITY           SKY/WX    TMP DP  RH WIND       PRES   REMARKS
PHOENIX        MOSUNNY  103  50  17 N5        29.91F HX 100
BUCKEYE          N/A    100  52  19 SE6       29.93F
GLENDALE       MOSUNNY  102  52  18 CALM      29.94F HX 100
LUKE AFB       SUNNY    102  52  18 CALM      29.91F
DEER VALLEY    SUNNY    102  52  18 W9        29.94F
SCOTTSDALE     SUNNY    102  52  18 SW6       29.96F
MESA-FALCON    MOSUNNY  102  55  21 SW7       29.94F HX 101
MESA-GATEWAY   MOSUNNY  100  54  20 N6        29.95F
CHANDLER       MOSUNNY  100  50  18 SE5       29.94
$$

AZZ539-553-222100-
SOUTHWEST MARICOPA COUNTY AND PINAL COUNTY

CITY           SKY/WX    TMP DP  RH WIND       PRES   REMARKS
CASA GRANDE    SUNNY    100  56  23 NE5       29.96F
GILA BEND      MOSUNNY  104  50  16 CALM      29.90F HX 101
$$

AZZ503-504-507>509-222100-
SOUTHEAST ARIZONA

CITY           SKY/WX    TMP DP  RH WIND       PRES   REMARKS
TUCSON         NOT AVBL
DAVIS-MONTHAN  SUNNY    102  53  19 NW3       30.02F
RYAN FIELD     SUNNY     99  54  22 NE8       30.03F
NOGALES        SUNNY     95  58  28 S7        30.13F
SIERRA VISTA   MOSUNNY   91  53  27 CALM      30.21F
DOUGLAS        MOSUNNY   91  53  27 VRB3      30.16F
SAFFORD        SUNNY     96  52  22 CALM      30.06F
$$

AZZ532-222100-
SOUTHWEST ARIZONA

CITY           SKY/WX    TMP DP  RH WIND       PRES   REMARKS
YUMA           MOSUNNY  103  50  17 NW5       29.88F HX 100
$$

CAZ041-043-047-048-061-525>527-560>570-222100-
SOUTHERN CALIFORNIA

CITY           SKY/WX    TMP DP  RH WIND       PRES   REMARKS
DOWNTOWN L.A.  SUNNY     79  62  56 MISG      29.99F
L.A. AIRPORT   MOSUNNY   74  63  68 W15       30.00F
SAN DIEGO      MOSUNNY   76  63  64 W13       30.00F
BURBANK        SUNNY     84  61  45 S10       29.98F
ONTARIO        MOSUNNY   90  53  28 W9        29.98F
RIVERSIDE      SUNNY     88  59  37 W6        29.98F
PALM SPRINGS   SUNNY    106  43  12 VRB6      29.91F HX 101
EL CENTRO NAS  SUNNY    104  46  14 E6        29.87F HX 100
IMPERIAL       SUNNY    105  53  17 SE8       29.85F HX 103
BLYTHE         SUNNY    105  52  17 CALM      29.89F HX 103
NEEDLES        MOSUNNY  104  45  13 CALM      29.94F HX 100
$$

NVZ020-UTZ003-222100-
SOUTHERN NEVADA-UTAH

CITY           SKY/WX    TMP DP  RH WIND       PRES   REMARKS
LAS VEGAS      MOSUNNY   96  50  20 CALM      30.05F
SALT LAKE CITY PTSUNNY   90  47  22 NW10      30.18F
$$

NMZ009-TXZ055-222100-
NEW MEXICO-WEST TEXAS

CITY           SKY/WX    TMP DP  RH WIND       PRES   REMARKS
ALBUQUERQUE    MOSUNNY   84  51  31 VRB5      30.28F
EL PASO        MOSUNNY   91  62  37 NE6       30.15F
$$


........................KEY........................
SKY/WX - SKY CONDITION/WEATHER
TMP    - TEMPERATURE IN FAHRENHEIT
DP     - DEW POINT IN FAHRENHEIT
RH     - RELATIVE HUMIDITY IN PERCENT
WIND   - DIRECTION AND SPEED IN MILES PER HOUR (MPH)
VRB    - VARIABLE WIND DIRECTION
PRES   - MEAN SEA LEVEL PRESSURE IN INCHES OF MERCURY
         F - FALLING PRESSURE   R - RISING PRESSURE
         S - STEADY PRESSURE
VSB    - VISIBILITY IN MILES
HX     - HEAT INDEX IN FAHRENHEIT
WCI    - WIND CHILL INDEX IN FAHRENHEIT
TC     - TEMPERATURE IN CELSIUS WHICH IS ALSO KNOWN AS
         TEMPERATURE IN CENTIGRADE
AFB    - AIR FORCE BASE
         LUKE AFB IS LUKE AIR FORCE BASE
         DAVIS-MONTHAN IS DAVIS-MONTHAN AIR FORCE BASE
NAS    - NAVAL AIR STATION
         EL CENTRO NAS IS EL CENTRO NAVAL AIR STATION
N/A    - NOT AVAILABLE




USA.gov is the U.S. government's official web portal to all federal, state and local government web resources and services.